• In Belarus
  • List of Countries
  • For 7 days
  • Water Temperature
  • Satellite Maps
  • Weather Map
  • Weather Widgets
  • user-avatar
    Login

    Hourly Weather Wafra

    Today, 21 October, Sunday

    Time Temperature Precipitation Wind Pressure Humidity
    00:00 +28°C° 0 mm 3 mps 746 mmHg 61%
    01:00 +28°C° 0 mm 3 mps 746 mmHg 62%
    02:00 +28°C° 0 mm 3 mps 746 mmHg 64%
    03:00 +28°C° 0 mm 3 mps 746 mmHg 65%
    04:00 +27°C° 0 mm 3 mps 746 mmHg 66%
    05:00 +27°C° 0 mm 3 mps 746 mmHg 66%
    06:00 +27°C° 0 mm 3 mps 746 mmHg 67%
    07:00 +29°C° 0 mm 4 mps 747 mmHg 58%
    08:00 +32°C° 0 mm 4 mps 747 mmHg 50%
    09:00 +33°C° 0 mm 4 mps 747 mmHg 41%
    10:00 +35°C° 0 mm 4 mps 747 mmHg 36%
    11:00 +36°C° 0 mm 5 mps 747 mmHg 31%
    12:00 +37°C° 0 mm 5 mps 747 mmHg 27%
    13:00 +37°C° 0 mm 5 mps 746 mmHg 26%
    14:00 +39°C° 0 mm 5 mps 746 mmHg 26%
    15:00 +39°C° 0 mm 5 mps 746 mmHg 26%
    16:00 +37°C° 0.4 mm 4 mps 746 mmHg 31%
    17:00 +35°C° 0.4 mm 4 mps 746 mmHg 36%
    18:00 +34°C° 0.4 mm 4 mps 746 mmHg 41%
    19:00 +33°C° 0 mm 5 mps 746 mmHg 46%
    20:00 +33°C° 0 mm 5 mps 746 mmHg 50%
    21:00 +33°C° 0 mm 6 mps 746 mmHg 54%
    22:00 +32°C° 0 mm 6 mps 746 mmHg 55%
    23:00 +32°C° 0 mm 6 mps 746 mmHg 55%

    Tomorrow, 22 October, Monday

    Time Temperature Precipitation Wind Pressure Humidity
    00:00 +32°C° 0 mm 6 mps 746 mmHg 56%
    01:00 +30°C° 0.1 mm 5 mps 746 mmHg 56%
    02:00 +30°C° 0.1 mm 4 mps 746 mmHg 57%
    03:00 +29°C° 0.1 mm 3 mps 746 mmHg 58%
    04:00 +29°C° 0.2 mm 3 mps 747 mmHg 57%
    05:00 +29°C° 0.2 mm 3 mps 747 mmHg 57%
    06:00 +29°C° 0.2 mm 3 mps 747 mmHg 57%
    07:00 +30°C° 0 mm 4 mps 748 mmHg 51%
    08:00 +33°C° 0 mm 5 mps 748 mmHg 44%
    09:00 +34°C° 0 mm 5 mps 748 mmHg 38%
    10:00 +35°C° 0 mm 5 mps 748 mmHg 34%
    11:00 +37°C° 0 mm 5 mps 748 mmHg 30%
    12:00 +39°C° 0 mm 5 mps 747 mmHg 26%
    13:00 +39°C° 0 mm 5 mps 747 mmHg 26%
    14:00 +39°C° 0 mm 5 mps 746 mmHg 26%
    15:00 +39°C° 0 mm 5 mps 746 mmHg 26%
    16:00 +36°C° 0 mm 6 mps 746 mmHg 34%
    17:00 +35°C° 0 mm 6 mps 746 mmHg 42%
    18:00 +33°C° 0 mm 7 mps 746 mmHg 50%
    19:00 +33°C° 0 mm 7 mps 746 mmHg 53%
    20:00 +33°C° 0 mm 6 mps 746 mmHg 56%
    21:00 +32°C° 0 mm 6 mps 747 mmHg 59%
    22:00 +32°C° 0 mm 6 mps 747 mmHg 60%
    23:00 +32°C° 0 mm 5 mps 747 mmHg 61%

    Day after tomorrow, 23 October, Tuesday

    Time Temperature Precipitation Wind Pressure Humidity
    00:00 +32°C° 0 mm 5 mps 746 mmHg 62%
    01:00 +30°C° 0 mm 5 mps 746 mmHg 65%
    02:00 +30°C° 0 mm 4 mps 746 mmHg 67%
    03:00 +29°C° 0 mm 4 mps 746 mmHg 70%
    04:00 +30°C° 0 mm 4 mps 747 mmHg 69%
    05:00 +30°C° 0 mm 4 mps 747 mmHg 69%
    06:00 +30°C° 0 mm 4 mps 747 mmHg 69%
    07:00 +30°C° 0.1 mm 4 mps 747 mmHg 64%
    08:00 +32°C° 0.1 mm 4 mps 748 mmHg 60%
    09:00 +33°C° 0.1 mm 3 mps 748 mmHg 55%
    10:00 +34°C° 0 mm 3 mps 748 mmHg 47%
    11:00 +36°C° 0 mm 3 mps 747 mmHg 38%
    12:00 +38°C° 0 mm 3 mps 747 mmHg 30%
    13:00 +38°C° 0 mm 3 mps 747 mmHg 27%
    14:00 +39°C° 0 mm 3 mps 746 mmHg 25%
    15:00 +40°C° 0 mm 4 mps 746 mmHg 22%
    16:00 +37°C° 0 mm 4 mps 746 mmHg 30%
    17:00 +36°C° 0 mm 4 mps 746 mmHg 38%
    18:00 +34°C° 0 mm 5 mps 746 mmHg 46%
    19:00 +33°C° 0 mm 4 mps 746 mmHg 52%
    20:00 +33°C° 0 mm 4 mps 746 mmHg 59%
    21:00 +31°C° 0 mm 3 mps 747 mmHg 66%
    22:00 +30°C° 0 mm 2 mps 746 mmHg 68%
    23:00 +30°C° 0 mm 2 mps 746 mmHg 70%

    24 October, Wednesday

    Time Temperature Precipitation Wind Pressure Humidity
    00:00 +29°C° 0 mm 1 mps 746 mmHg 72%
    01:00 +29°C° 0 mm 2 mps 746 mmHg 68%
    02:00 +29°C° 0 mm 2 mps 746 mmHg 63%
    03:00 +29°C° 0 mm 3 mps 746 mmHg 58%
    04:00 +28°C° 0 mm 3 mps 746 mmHg 52%
    05:00 +28°C° 0 mm 3 mps 746 mmHg 45%
    06:00 +27°C° 0 mm 2 mps 746 mmHg 39%
    07:00 +29°C° 0 mm 2 mps 746 mmHg 34%
    08:00 +30°C° 0 mm 2 mps 747 mmHg 29%
    09:00 +32°C° 0 mm 1 mps 747 mmHg 23%
    10:00 +33°C° 0 mm 1 mps 747 mmHg 21%
    11:00 +34°C° 0 mm 1 mps 746 mmHg 18%
    12:00 +35°C° 0 mm 1 mps 746 mmHg 15%
    13:00 +36°C° 0 mm 1 mps 745 mmHg 14%
    14:00 +36°C° 0 mm 1 mps 745 mmHg 14%
    15:00 +38°C° 0 mm 2 mps 744 mmHg 13%
    16:00 +36°C° 0 mm 2 mps 744 mmHg 17%
    17:00 +35°C° 0 mm 2 mps 744 mmHg 21%
    18:00 +32°C° 0 mm 2 mps 744 mmHg 25%
    19:00 +31°C° 0 mm 2 mps 744 mmHg 32%
    20:00 +31°C° 0 mm 3 mps 745 mmHg 38%
    21:00 +30°C° 0 mm 3 mps 745 mmHg 45%
    22:00 +29°C° 0 mm 3 mps 745 mmHg 48%
    23:00 +29°C° 0 mm 3 mps 744 mmHg 52%

    25 October, Thursday

    Time Temperature Precipitation Wind Pressure Humidity
    00:00 +29°C° 0 mm 3 mps 744 mmHg 55%
    01:00 +28°C° 0 mm 3 mps 744 mmHg 57%
    02:00 +28°C° 0 mm 3 mps 744 mmHg 59%
    03:00 +28°C° 0 mm 3 mps 744 mmHg 60%
    04:00 +28°C° 0 mm 4 mps 744 mmHg 63%
    05:00 +28°C° 0 mm 4 mps 744 mmHg 66%
    06:00 +28°C° 0 mm 4 mps 744 mmHg 69%
    07:00 +29°C° 0 mm 4 mps 745 mmHg 60%
    08:00 +32°C° 0 mm 5 mps 745 mmHg 51%
    09:00 +34°C° 0 mm 5 mps 745 mmHg 43%
    10:00 +36°C° 0 mm 5 mps 745 mmHg 35%
    11:00 +39°C° 0 mm 5 mps 744 mmHg 28%
    12:00 +40°C° 0 mm 5 mps 744 mmHg 20%
    13:00 +41°C° 0 mm 5 mps 744 mmHg 19%
    14:00 +41°C° 0 mm 5 mps 743 mmHg 18%
    15:00 +41°C° 0 mm 5 mps 743 mmHg 16%
    16:00 +40°C° 0 mm 5 mps 743 mmHg 24%
    17:00 +37°C° 0 mm 5 mps 743 mmHg 32%
    18:00 +35°C° 0 mm 6 mps 743 mmHg 40%
    19:00 +34°C° 0 mm 6 mps 743 mmHg 45%
    20:00 +33°C° 0 mm 7 mps 743 mmHg 51%
    21:00 +33°C° 0 mm 7 mps 744 mmHg 56%
    22:00 +32°C° 0 mm 7 mps 744 mmHg 55%
    23:00 +32°C° 0 mm 7 mps 744 mmHg 54%

    26 October, Friday

    Time Temperature Precipitation Wind Pressure Humidity
    00:00 +32°C° 0 mm 7 mps 743 mmHg 53%
    01:00 +32°C° 0 mm 7 mps 743 mmHg 51%
    02:00 +32°C° 0 mm 7 mps 743 mmHg 48%
    03:00 +32°C° 0 mm 6 mps 743 mmHg 45%
    04:00 +30°C° 0 mm 6 mps 744 mmHg 41%
    05:00 +30°C° 0 mm 6 mps 744 mmHg 37%
    06:00 +30°C° 0 mm 6 mps 744 mmHg 32%
    07:00 +33°C° 0 mm 6 mps 745 mmHg 27%
    08:00 +35°C° 0 mm 7 mps 745 mmHg 22%
    09:00 +39°C° 0 mm 7 mps 745 mmHg 17%
    10:00 +39°C° 0 mm 7 mps 745 mmHg 16%
    11:00 +40°C° 0 mm 7 mps 745 mmHg 15%
    12:00 +40°C° 0 mm 7 mps 744 mmHg 15%
    13:00 +41°C° 0 mm 6 mps 744 mmHg 14%
    14:00 +42°C° 0 mm 6 mps 744 mmHg 13%
    15:00 +44°C° 0 mm 6 mps 743 mmHg 12%
    16:00 +41°C° 0.1 mm 5 mps 743 mmHg 16%
    17:00 +38°C° 0.1 mm 4 mps 744 mmHg 19%
    18:00 +36°C° 0.1 mm 3 mps 744 mmHg 22%
    19:00 +35°C° 0 mm 3 mps 744 mmHg 30%
    20:00 +34°C° 0 mm 4 mps 745 mmHg 38%
    21:00 +34°C° 0 mm 5 mps 745 mmHg 47%
    22:00 +33°C° 0 mm 5 mps 745 mmHg 47%
    23:00 +33°C° 0 mm 4 mps 745 mmHg 47%
    Show more